Location: Camerons Lookout
(40.9833°S, 175.9333°E)
Time: 17:13:40
(UTC+00:00)

Iridium 4 Rocket - Pass Details

Date: 14 January 2026
Orbit: 580 x 885 km, 86.9° (Epoch: 16 February)

Event Time Altitude Azimuth Distance (km) Brightness Sun altitude
Exits shadow 11:06:54 33° 107° (ESE) 1,170 4.4 -25.1°
Drops below altitude 10° 11:10:35 10° 158° (SSE) 2,093 6.4 -25.4°
Sets 11:12:55 0° 167° (SSE) 2,970 7.5 -25.5°
